Cloud_Cover
14 5 3 6 3 0 0 0 2 70 11 5 2 23 9 69 94 22 4 4 1 0
0 0 0 0 0 0 0 0 0 8 5 10 13 100 100 100 100 96 1 0 1 9
0 0 0 0 0 0 2 4 3 5 94 99 100 100 100 100 100 100 93 88 21 41
0 4 0 0 0 0 0 0 4 5 96 100 100 100 100 100 100 100 100 100 100 100
3 0 5 3 0 0 0 32 62 4 18 25 92 100 100 64 100 100 100 100 100 100
0 0 0 4 5 0 0 0 0 0 9 33 100 100 100 100 100 100 100 100 100 100
96 67 0 0 0 1 4 0 5 65 100 100 100 100 100 100 100 100 100 100 100 100
100 97 6 1 11 100 100 99 100 100 100 100 100 100 100 100 100 100 100 100 100 100
65 99 37 99 100 100 100 100 100 100 100 100 100 100 100 100 100 100 100 100 100 100
99 100 100 100 100 100 100 95 100 100 100 100 100 100 100 100 100 100 100 100 100 100
2 30 50 5 32 52 26 5 7 3 5 56 100 100 98 100 100 100 100 100 100 100
0 4 3 0 0 0 0 0 5 83 27 1 53 100 100 100 70 100 100 100 100 100
0 0 0 0 0 0 0 0 0 0 2 41 100 100 100 98 100 100 86 30 100 100
0 0 0 0 0 0 0 0 0 0 2 18 91 100 100 100 37 97 100 100 100 98